﻿_id,日時,平均風速(m/s),平均風向,最大瞬間風速(m/s),最大風速時風向,気温(℃),湿度(%),10分間移動積算雨量(mm),1時間移動積算雨量(mm),日雨量(mm),累計雨量(mm),日射(日積算)(MJ/m2),日照(日積算)(min),現地気圧(hPa),海面気圧(hPa)
1,2020-09-21T00:00:00,1.4,北北東,2.3,北東,19.2,82.4,0,0,0,0,13.37,309,1002.7,1016.4
2,2020-09-21T00:01:00,1.4,北北東,2.3,北東,19.1,82.1,0,0,0,0,0,0,1002.7,1016.4
3,2020-09-21T00:02:00,1.3,北北東,2.2,北北東,19.1,82.3,0,0,0,0,0,0,1002.7,1016.4
4,2020-09-21T00:03:00,1.3,北北東,2.2,北北東,19.3,82.8,0,0,0,0,0,0,1002.7,1016.4
5,2020-09-21T00:04:00,1.2,北北東,2.2,北北東,19.3,82.7,0,0,0,0,0,0,1002.7,1016.4
6,2020-09-21T00:05:00,1.1,北北東,2.2,北北東,19.4,82.7,0,0,0,0,0,0,1002.7,1016.3
7,2020-09-21T00:06:00,1,北北東,2.2,北北東,19.3,82.5,0,0,0,0,0,0,1002.7,1016.4
8,2020-09-21T00:07:00,1,北北東,2.2,北北東,19.2,82.1,0,0,0,0,0,0,1002.6,1016.3
9,2020-09-21T00:08:00,0.9,北北東,1.6,北北東,19,82.4,0,0,0,0,0,0,1002.6,1016.3
10,2020-09-21T00:09:00,0.9,北北東,1.6,北北東,19,83,0,0,0,0,0,0,1002.6,1016.3
11,2020-09-21T00:10:00,0.8,北北東,1.6,北北東,19,83.5,0,0,0,0,0,0,1002.6,1016.3
12,2020-09-21T00:11:00,0.8,北北東,1.6,北北東,19,83.6,0,0,0,0,0,0,1002.6,1016.3
13,2020-09-21T00:12:00,0.8,北北東,1.7,北北東,19,83.8,0,0,0,0,0,0,1002.6,1016.3
14,2020-09-21T00:13:00,0.8,北北東,1.7,北北東,19,83.7,0,0,0,0,0,0,1002.6,1016.3
15,2020-09-21T00:14:00,0.9,北北東,1.7,北北東,18.9,83.5,0,0,0,0,0,0,1002.6,1016.3
16,2020-09-21T00:15:00,0.9,北北東,1.7,北北東,18.9,83.5,0,0,0,0,0,0,1002.6,1016.3
17,2020-09-21T00:16:00,0.9,北北東,1.7,北北東,18.9,83.7,0,0,0,0,0,0,1002.7,1016.4
18,2020-09-21T00:17:00,0.9,北北東,1.7,北北東,18.9,83.6,0,0,0,0,0,0,1002.7,1016.4
19,2020-09-21T00:18:00,0.9,北北東,1.7,北北東,18.9,83.9,0,0,0,0,0,0,1002.7,1016.4
20,2020-09-21T00:19:00,0.8,北北東,1.7,北北東,19,83.9,0,0,0,0,0,0,1002.6,1016.3
21,2020-09-21T00:20:00,0.7,北北東,1.7,北北東,19.1,83.9,0,0,0,0,0,0,1002.6,1016.3
22,2020-09-21T00:21:00,0.7,北北東,1.7,北北東,19.1,83.5,0,0,0,0,0,0,1002.6,1016.3
23,2020-09-21T00:22:00,0.6,北,1.7,北北東,18.9,83.2,0,0,0,0,0,0,1002.6,1016.3
24,2020-09-21T00:23:00,0.5,北,1.5,北北東,18.9,83.4,0,0,0,0,0,0,1002.6,1016.3
25,2020-09-21T00:24:00,0.4,北,1.3,北東,18.9,83.8,0,0,0,0,0,0,1002.6,1016.3
26,2020-09-21T00:25:00,0.4,北,1.2,北西,18.8,83.9,0,0,0,0,0,0,1002.6,1016.3
27,2020-09-21T00:26:00,0.4,北,1.2,北西,18.8,84,0,0,0,0,0,0,1002.5,1016.2
28,2020-09-21T00:27:00,0.4,北北西,1.2,北西,18.8,84.2,0,0,0,0,0,0,1002.5,1016.2
29,2020-09-21T00:28:00,0.5,北北西,1.6,北,18.9,84.4,0,0,0,0,0,0,1002.5,1016.2
30,2020-09-21T00:29:00,0.5,北北西,1.6,北,18.9,84.4,0,0,0,0,0,0,1002.5,1016.2
31,2020-09-21T00:30:00,0.6,北北西,1.6,北,18.8,84,0,0,0,0,0,0,1002.5,1016.2
32,2020-09-21T00:31:00,0.6,北北西,1.6,北,18.9,84.1,0,0,0,0,0,0,1002.5,1016.2
33,2020-09-21T00:32:00,0.7,北北西,1.6,北,18.8,83.7,0,0,0,0,0,0,1002.5,1016.2
34,2020-09-21T00:33:00,0.7,北北西,1.6,北,18.8,83.7,0,0,0,0,0,0,1002.5,1016.2
35,2020-09-21T00:34:00,0.7,北北西,1.6,北,18.8,83.6,0,0,0,0,0,0,1002.5,1016.2
36,2020-09-21T00:35:00,0.7,北,1.6,北,18.8,83.7,0,0,0,0,0,0,1002.4,1016.1
37,2020-09-21T00:36:00,0.6,北,1.6,北,18.9,83.7,0,0,0,0,0,0,1002.4,1016.1
38,2020-09-21T00:37:00,0.6,北,1.6,北,18.9,83.4,0,0,0,0,0,0,1002.4,1016.1
39,2020-09-21T00:38:00,0.6,北,1.4,北西,18.9,83.3,0,0,0,0,0,0,1002.4,1016.1
40,2020-09-21T00:39:00,0.7,北,1.7,北北東,18.9,83,0,0,0,0,0,0,1002.4,1016.1
41,2020-09-21T00:40:00,0.7,北,1.7,北北東,18.8,83,0,0,0,0,0,0,1002.5,1016.2
42,2020-09-21T00:41:00,0.8,北,1.7,北北東,18.8,82.9,0,0,0,0,0,0,1002.5,1016.2
43,2020-09-21T00:42:00,0.8,北,1.7,北北東,18.9,83.4,0,0,0,0,0,0,1002.5,1016.2
44,2020-09-21T00:43:00,0.8,北北東,1.7,北北東,18.8,82.8,0,0,0,0,0,0,1002.5,1016.2
45,2020-09-21T00:44:00,0.9,北北東,1.7,北北東,18.9,82.9,0,0,0,0,0,0,1002.6,1016.3
46,2020-09-21T00:45:00,1,北北東,1.7,北北東,18.9,82.1,0,0,0,0,0,0,1002.6,1016.3
47,2020-09-21T00:46:00,1,北北東,1.7,北北東,18.8,81.6,0,0,0,0,0,0,1002.5,1016.2
48,2020-09-21T00:47:00,1,北北東,1.7,北北東,18.7,81.3,0,0,0,0,0,0,1002.5,1016.2
49,2020-09-21T00:48:00,1,北北東,1.7,北北東,18.8,81.9,0,0,0,0,0,0,1002.5,1016.2
50,2020-09-21T00:49:00,1,北北東,1.8,東北東,18.8,81.8,0,0,0,0,0,0,1002.4,1016.1
51,2020-09-21T00:50:00,1,北北東,1.8,東北東,18.7,81.5,0,0,0,0,0,0,1002.4,1016.1
52,2020-09-21T00:51:00,0.9,北北東,1.8,東北東,18.6,81.6,0,0,0,0,0,0,1002.3,1016
53,2020-09-21T00:52:00,1,北東,2,北東,18.9,82.4,0,0,0,0,0,0,1002.3,1016
54,2020-09-21T00:53:00,1,北東,2.2,北北東,18.9,81.6,0,0,0,0,0,0,1002.3,1016
55,2020-09-21T00:54:00,1.1,北東,3.5,北,18.9,80.9,0,0,0,0,0,0,1002.3,1016
56,2020-09-21T00:55:00,1.2,北北東,3.5,北,19,79.6,0,0,0,0,0,0,1002.4,1016.1
57,2020-09-21T00:56:00,1.2,北北東,3.5,北,19.1,78.4,0,0,0,0,0,0,1002.4,1016.1
58,2020-09-21T00:57:00,1.2,北北東,3.5,北,19.1,77.7,0,0,0,0,0,0,1002.4,1016.1
59,2020-09-21T00:58:00,1.2,北北東,3.5,北,19,77.6,0,0,0,0,0,0,1002.4,1016.1
60,2020-09-21T00:59:00,1.1,北北東,3.5,北,19.1,78.2,0,0,0,0,0,0,1002.4,1016.1
61,2020-09-21T01:00:00,1.1,北北東,3.5,北,18.8,78,0,0,0,0,0,0,1002.4,1016.1
62,2020-09-21T01:01:00,1,北北東,3.5,北,18.8,78.7,0,0,0,0,0,0,1002.5,1016.2
63,2020-09-21T01:02:00,1.1,北北東,3.5,北,18.8,79.5,0,0,0,0,0,0,1002.5,1016.2
64,2020-09-21T01:03:00,0.9,北北東,3.5,北,18.7,79.2,0,0,0,0,0,0,1002.5,1016.2
65,2020-09-21T01:04:00,0.8,北北東,2.4,北北東,18.7,79.3,0,0,0,0,0,0,1002.4,1016.1
66,2020-09-21T01:05:00,0.8,北東,2,北北東,18.5,79.8,0,0,0,0,0,0,1002.4,1016.1
67,2020-09-21T01:06:00,0.9,北東,2,北北東,18.5,80.3,0,0,0,0,0,0,1002.4,1016.1
68,2020-09-21T01:07:00,0.9,北東,2,北北東,18.6,80.9,0,0,0,0,0,0,1002.5,1016.2
69,2020-09-21T01:08:00,1,北東,2,北北東,18.7,80.8,0,0,0,0,0,0,1002.5,1016.2
70,2020-09-21T01:09:00,1,北東,2,北北東,18.8,80.6,0,0,0,0,0,0,1002.5,1016.2
71,2020-09-21T01:10:00,1.1,北東,2,北北東,18.7,79.9,0,0,0,0,0,0,1002.5,1016.2
72,2020-09-21T01:11:00,1.1,北東,2,北北東,18.7,79.4,0,0,0,0,0,0,1002.5,1016.2
73,2020-09-21T01:12:00,1.1,北東,2,北東,18.8,79.6,0,0,0,0,0,0,1002.5,1016.2
74,2020-09-21T01:13:00,1.2,北東,2.1,北東,18.7,79,0,0,0,0,0,0,1002.5,1016.2
75,2020-09-21T01:14:00,1.2,北東,2.1,北東,18.7,79,0,0,0,0,0,0,1002.6,1016.3
76,2020-09-21T01:15:00,1.2,北東,2.1,北東,18.7,79.2,0,0,0,0,0,0,1002.6,1016.3
77,2020-09-21T01:16:00,1.2,北東,2.1,北東,18.6,79,0,0,0,0,0,0,1002.6,1016.3
78,2020-09-21T01:17:00,1.2,北東,2.1,北東,18.7,79.5,0,0,0,0,0,0,1002.6,1016.3
79,2020-09-21T01:18:00,1.2,北東,2.1,北東,18.7,79.1,0,0,0,0,0,0,1002.6,1016.3
80,2020-09-21T01:19:00,1.2,北東,2.1,北東,18.7,78.8,0,0,0,0,0,0,1002.6,1016.3
81,2020-09-21T01:20:00,1.2,北東,2.1,北東,18.7,78.6,0,0,0,0,0,0,1002.6,1016.3
82,2020-09-21T01:21:00,1.2,北東,2.1,北東,18.7,78.8,0,0,0,0,0,0,1002.6,1016.3
83,2020-09-21T01:22:00,1.2,北東,2.1,北東,18.7,78.6,0,0,0,0,0,0,1002.6,1016.3
84,2020-09-21T01:23:00,1.1,北東,2,北東,18.6,78.6,0,0,0,0,0,0,1002.7,1016.4
85,2020-09-21T01:24:00,1.1,北東,2,北東,18.6,79.2,0,0,0,0,0,0,1002.7,1016.4
86,2020-09-21T01:25:00,1.1,北東,2,北東,18.6,79.2,0,0,0,0,0,0,1002.7,1016.4
87,2020-09-21T01:26:00,1.1,北東,2,北東,18.7,79.4,0,0,0,0,0,0,1002.7,1016.4
88,2020-09-21T01:27:00,1.1,北東,2,北東,18.4,78.6,0,0,0,0,0,0,1002.7,1016.4
89,2020-09-21T01:28:00,1.1,北東,2,北東,18.5,79.5,0,0,0,0,0,0,1002.7,1016.4
90,2020-09-21T01:29:00,1,北東,1.9,北東,18.7,80,0,0,0,0,0,0,1002.8,1016.5
91,2020-09-21T01:30:00,1,北東,1.8,北東,18.7,79.5,0,0,0,0,0,0,1002.8,1016.5
92,2020-09-21T01:31:00,1,北東,1.8,北東,18.5,79,0,0,0,0,0,0,1002.8,1016.5
93,2020-09-21T01:32:00,1,北東,1.8,北東,18.6,78.9,0,0,0,0,0,0,1002.8,1016.5
94,2020-09-21T01:33:00,1,北東,1.8,北東,18.6,79.1,0,0,0,0,0,0,1002.9,1016.6
95,2020-09-21T01:34:00,1,北東,1.7,北東,18.5,78.8,0,0,0,0,0,0,1002.9,1016.6
96,2020-09-21T01:35:00,1.1,北東,1.7,北東,18.5,79,0,0,0,0,0,0,1002.8,1016.5
97,2020-09-21T01:36:00,1.1,北東,1.7,北東,18.6,79,0,0,0,0,0,0,1002.8,1016.5
98,2020-09-21T01:37:00,1,北東,1.7,北東,18.6,78.7,0,0,0,0,0,0,1002.8,1016.5
99,2020-09-21T01:38:00,1.1,北東,1.7,北東,18.7,78.6,0,0,0,0,0,0,1002.8,1016.5
100,2020-09-21T01:39:00,1.2,北東,1.7,北東,18.8,78.8,0,0,0,0,0,0,1002.8,1016.5
101,2020-09-21T01:40:00,1.2,北東,1.8,北北東,18.8,78.3,0,0,0,0,0,0,1002.8,1016.5
102,2020-09-21T01:41:00,1.2,北北東,1.8,北北東,18.9,78.2,0,0,0,0,0,0,1002.8,1016.5
103,2020-09-21T01:42:00,1.3,北北東,1.8,北北東,18.6,77.6,0,0,0,0,0,0,1002.8,1016.5
104,2020-09-21T01:43:00,1.4,北北東,1.8,北北東,18.6,77.8,0,0,0,0,0,0,1002.8,1016.5
105,2020-09-21T01:44:00,1.3,北北東,1.9,北北東,18.5,78.1,0,0,0,0,0,0,1002.8,1016.5
106,2020-09-21T01:45:00,1.3,北北東,1.9,北北東,18.6,78.5,0,0,0,0,0,0,1002.8,1016.5
107,2020-09-21T01:46:00,1.3,北北東,1.9,北北東,18.6,78.7,0,0,0,0,0,0,1002.8,1016.5
108,2020-09-21T01:47:00,1.3,北北東,1.9,北北東,18.6,78.4,0,0,0,0,0,0,1002.8,1016.5
109,2020-09-21T01:48:00,1.4,北北東,2.2,北東,18.5,78.1,0,0,0,0,0,0,1002.8,1016.5
110,2020-09-21T01:49:00,1.4,北北東,2.2,北東,18.5,78.5,0,0,0,0,0,0,1002.8,1016.5
111,2020-09-21T01:50:00,1.4,北北東,2.2,北東,18.7,79,0,0,0,0,0,0,1002.8,1016.5
112,2020-09-21T01:51:00,1.4,北北東,2.2,北東,18.7,78.5,0,0,0,0,0,0,1002.8,1016.5
113,2020-09-21T01:52:00,1.4,北北東,2.2,北東,18.5,78.2,0,0,0,0,0,0,1002.8,1016.5
114,2020-09-21T01:53:00,1.4,北北東,2.2,北東,18.6,78.5,0,0,0,0,0,0,1002.7,1016.4
115,2020-09-21T01:54:00,1.3,北北東,2.2,北東,18.5,78.4,0,0,0,0,0,0,1002.7,1016.4
116,2020-09-21T01:55:00,1.3,北東,2.2,北東,18.5,78.5,0,0,0,0,0,0,1002.7,1016.4
117,2020-09-21T01:56:00,1.3,北北東,2.2,北東,18.5,78.4,0,0,0,0,0,0,1002.7,1016.4
118,2020-09-21T01:57:00,1.2,北北東,2.2,北東,18.4,78.6,0,0,0,0,0,0,1002.6,1016.3
119,2020-09-21T01:58:00,1.1,北北東,1.9,北東,18.2,78.8,0,0,0,0,0,0,1002.6,1016.3
120,2020-09-21T01:59:00,1,北北東,1.9,北東,18.2,79.6,0,0,0,0,0,0,1002.6,1016.3
121,2020-09-21T02:00:00,0.9,北北東,1.8,北東,18.2,80,0,0,0,0,0,0,1002.6,1016.3
122,2020-09-21T02:01:00,0.8,北北東,1.8,北東,18.1,79.9,0,0,0,0,0,0,1002.6,1016.3
123,2020-09-21T02:02:00,0.7,北北東,1.8,北東,18.2,80.2,0,0,0,0,0,0,1002.6,1016.3
124,2020-09-21T02:03:00,0.7,北北東,1.6,北東,18.2,80.2,0,0,0,0,0,0,1002.6,1016.3
125,2020-09-21T02:04:00,0.7,北北東,1.5,北北東,18.2,80.1,0,0,0,0,0,0,1002.6,1016.3
126,2020-09-21T02:05:00,0.7,北北東,1.6,北東,18.1,80,0,0,0,0,0,0,1002.7,1016.4
127,2020-09-21T02:06:00,0.8,北北東,1.6,北東,18.1,80.5,0,0,0,0,0,0,1002.7,1016.4
128,2020-09-21T02:07:00,0.8,北北東,1.6,北東,18,80.4,0,0,0,0,0,0,1002.7,1016.4
129,2020-09-21T02:08:00,0.8,北北東,1.6,北東,18.1,80.9,0,0,0,0,0,0,1002.8,1016.5
130,2020-09-21T02:09:00,0.8,北北東,1.6,北東,18,80.7,0,0,0,0,0,0,1002.8,1016.5
131,2020-09-21T02:10:00,0.7,北北東,1.6,北東,18.1,80.9,0,0,0,0,0,0,1002.7,1016.4
132,2020-09-21T02:11:00,0.7,北北東,1.6,北東,18.1,80.6,0,0,0,0,0,0,1002.7,1016.4
133,2020-09-21T02:12:00,0.7,北北東,1.6,北東,18.2,80.6,0,0,0,0,0,0,1002.7,1016.4
134,2020-09-21T02:13:00,0.6,北北東,1.6,北東,18.1,80.1,0,0,0,0,0,0,1002.7,1016.4
135,2020-09-21T02:14:00,0.6,北北東,1.6,北東,18.1,80.3,0,0,0,0,0,0,1002.7,1016.4
136,2020-09-21T02:15:00,0.5,北北東,1.5,北東,18.1,80.7,0,0,0,0,0,0,1002.7,1016.4
137,2020-09-21T02:16:00,0.4,北,1.1,北北東,18,80.9,0,0,0,0,0,0,1002.7,1016.4
138,2020-09-21T02:17:00,0.4,北,1.2,北西,17.9,80.8,0,0,0,0,0,0,1002.7,1016.4
139,2020-09-21T02:18:00,0.5,北,1.2,北西,17.8,80.8,0,0,0,0,0,0,1002.8,1016.5
140,2020-09-21T02:19:00,0.4,北,1.2,北西,18,81.7,0,0,0,0,0,0,1002.9,1016.6
141,2020-09-21T02:20:00,0.5,北,1.2,北西,18,81.4,0,0,0,0,0,0,1002.9,1016.6
142,2020-09-21T02:21:00,0.6,北,1.2,北西,17.9,81.1,0,0,0,0,0,0,1002.9,1016.6
143,2020-09-21T02:22:00,0.6,北,1.2,北西,17.8,81.2,0,0,0,0,0,0,1002.9,1016.6
144,2020-09-21T02:23:00,0.6,北,1.2,北西,17.8,81.4,0,0,0,0,0,0,1003,1016.7
145,2020-09-21T02:24:00,0.7,北,1.4,北北東,17.9,81.8,0,0,0,0,0,0,1003,1016.7
146,2020-09-21T02:25:00,0.7,北北東,1.6,北東,17.9,81.4,0,0,0,0,0,0,1003,1016.7
147,2020-09-21T02:26:00,0.8,北北東,1.6,北東,17.9,81.2,0,0,0,0,0,0,1003,1016.7
148,2020-09-21T02:27:00,0.8,北北東,1.6,北東,17.9,81,0,0,0,0,0,0,1003,1016.7
149,2020-09-21T02:28:00,0.8,北北東,1.6,北東,18,81.2,0,0,0,0,0,0,1003,1016.7
150,2020-09-21T02:29:00,0.8,北北東,1.6,北東,17.9,80.9,0,0,0,0,0,0,1003,1016.7
151,2020-09-21T02:30:00,0.9,北北東,1.8,北,18,80.9,0,0,0,0,0,0,1003,1016.7
152,2020-09-21T02:31:00,1,北北東,2,北東,18.1,81.1,0,0,0,0,0,0,1002.9,1016.6
153,2020-09-21T02:32:00,1,北北東,2,北東,18,81.1,0,0,0,0,0,0,1002.9,1016.6
154,2020-09-21T02:33:00,1,北北東,2,北東,17.8,80.4,0,0,0,0,0,0,1002.8,1016.5
155,2020-09-21T02:34:00,1,北,2,北東,17.8,80.9,0,0,0,0,0,0,1002.7,1016.4
156,2020-09-21T02:35:00,1,北,2,北東,17.6,81.3,0,0,0,0,0,0,1002.7,1016.4
157,2020-09-21T02:36:00,1,北,2,北東,17.6,81.5,0,0,0,0,0,0,1002.6,1016.3
158,2020-09-21T02:37:00,1,北,2,北東,17.7,82.3,0,0,0,0,0,0,1002.6,1016.3
159,2020-09-21T02:38:00,1,北,2,北東,17.6,82.6,0,0,0,0,0,0,1002.7,1016.4
160,2020-09-21T02:39:00,1,北,2.3,北北東,17.6,82.3,0,0,0,0,0,0,1002.7,1016.4
161,2020-09-21T02:40:00,1.1,北,2.6,北,17.6,82.7,0,0,0,0,0,0,1002.7,1016.4
162,2020-09-21T02:41:00,1.2,北,2.9,北北東,17.5,82.6,0,0,0,0,0,0,1002.8,1016.5
163,2020-09-21T02:42:00,1.2,北,2.9,北北東,17.5,83.1,0,0,0,0,0,0,1002.8,1016.5
164,2020-09-21T02:43:00,1.4,北,2.9,北北東,17.5,83.4,0,0,0,0,0,0,1002.8,1016.5
165,2020-09-21T02:44:00,1.4,北北東,2.9,北北東,17.4,83.1,0,0,0,0,0,0,1002.8,1016.5
166,2020-09-21T02:45:00,1.4,北北東,2.9,北北東,17.4,83.4,0,0,0,0,0,0,1002.8,1016.5
167,2020-09-21T02:46:00,1.5,北北東,2.9,北北東,17.4,83.6,0,0,0,0,0,0,1002.8,1016.5
168,2020-09-21T02:47:00,1.5,北北東,2.9,北北東,17.4,83.4,0,0,0,0,0,0,1002.8,1016.5
169,2020-09-21T02:48:00,1.5,北北東,2.9,北北東,17.4,83.2,0,0,0,0,0,0,1002.8,1016.5
170,2020-09-21T02:49:00,1.5,北北東,2.9,北北東,17.5,83.5,0,0,0,0,0,0,1002.8,1016.5
171,2020-09-21T02:50:00,1.4,北北東,2.9,北北東,17.6,83.6,0,0,0,0,0,0,1002.8,1016.5
172,2020-09-21T02:51:00,1.2,北北東,2.6,北北東,17.4,83.1,0,0,0,0,0,0,1002.8,1016.5
173,2020-09-21T02:52:00,1.1,北北東,2.6,北北東,17.4,83.2,0,0,0,0,0,0,1002.8,1016.5
174,2020-09-21T02:53:00,1,北北東,2.2,北東,17.3,83.1,0,0,0,0,0,0,1002.8,1016.5
175,2020-09-21T02:54:00,0.9,北北東,2,北北東,17.3,83.2,0,0,0,0,0,0,1002.8,1016.5
176,2020-09-21T02:55:00,0.8,北,2,北北東,17.2,83.4,0,0,0,0,0,0,1002.8,1016.6
177,2020-09-21T02:56:00,0.7,北,1.7,北北東,17.2,83.7,0,0,0,0,0,0,1002.8,1016.6
178,2020-09-21T02:57:00,0.5,北,1.6,北北東,17.2,84.2,0,0,0,0,0,0,1002.8,1016.6
179,2020-09-21T02:58:00,0.5,北,1.6,北北東,17.2,84.6,0,0,0,0,0,0,1002.8,1016.6
180,2020-09-21T02:59:00,0.4,北,1.6,北北東,17,84.2,0,0,0,0,0,0,1002.8,1016.6
181,2020-09-21T03:00:00,0.4,北北西,1.6,北北東,17,84.4,0,0,0,0,0,0,1002.8,1016.6
182,2020-09-21T03:01:00,0.4,北北西,1.6,北北東,17,85,0,0,0,0,0,0,1002.8,1016.6
183,2020-09-21T03:02:00,0.4,北北西,1.6,北北東,17,85.4,0,0,0,0,0,0,1002.7,1016.5
184,2020-09-21T03:03:00,0.3,北北西,1.5,北,17.1,85.4,0,0,0,0,0,0,1002.7,1016.5
185,2020-09-21T03:04:00,0.4,北北西,1.8,北,17.2,85.9,0,0,0,0,0,0,1002.7,1016.5
186,2020-09-21T03:05:00,0.4,北北西,1.8,北,17.1,85.5,0,0,0,0,0,0,1002.7,1016.5
187,2020-09-21T03:06:00,0.5,北北西,1.8,北,17,84.9,0,0,0,0,0,0,1002.7,1016.5
188,2020-09-21T03:07:00,0.6,北北西,1.8,北,17,85.1,0,0,0,0,0,0,1002.6,1016.4
189,2020-09-21T03:08:00,0.6,北北西,1.8,北,17,85.6,0,0,0,0,0,0,1002.6,1016.4
190,2020-09-21T03:09:00,0.6,北北西,1.8,北,17.1,85.9,0,0,0,0,0,0,1002.7,1016.5
191,2020-09-21T03:10:00,0.7,北北西,1.8,北,17,85.6,0,0,0,0,0,0,1002.7,1016.5
192,2020-09-21T03:11:00,0.6,北西,1.8,北,16.8,85.2,0,0,0,0,0,0,1002.7,1016.5
193,2020-09-21T03:12:00,0.6,北西,1.8,北,16.7,85.5,0,0,0,0,0,0,1002.8,1016.6
194,2020-09-21T03:13:00,0.6,北西,1.8,北,16.6,86.1,0,0,0,0,0,0,1002.8,1016.6
195,2020-09-21T03:14:00,0.5,北西,1.5,北西,16.6,86.6,0,0,0,0,0,0,1002.8,1016.6
196,2020-09-21T03:15:00,0.5,北西,1.5,北西,16.7,87.3,0,0,0,0,0,0,1002.9,1016.7
197,2020-09-21T03:16:00,0.5,北西,1.5,北西,16.7,87.5,0,0,0,0,0,0,1002.9,1016.7
198,2020-09-21T03:17:00,0.4,北西,1.5,北西,16.6,87.3,0,0,0,0,0,0,1002.9,1016.7
199,2020-09-21T03:18:00,0.4,北西,1.5,北西,16.7,87.4,0,0,0,0,0,0,1002.9,1016.7
200,2020-09-21T03:19:00,0.4,北西,1.3,西北西,16.8,87.5,0,0,0,0,0,0,1002.9,1016.7
201,2020-09-21T03:20:00,0.3,北北西,0.8,西,16.7,87.3,0,0,0,0,0,0,1002.9,1016.7
202,2020-09-21T03:21:00,0.3,北北西,0.8,西,16.8,87.3,0,0,0,0,0,0,1002.9,1016.7
203,2020-09-21T03:22:00,0.4,北北西,1,西北西,16.9,87.3,0,0,0,0,0,0,1002.9,1016.7
204,2020-09-21T03:23:00,0.4,北北西,1.2,北西,16.8,86.8,0,0,0,0,0,0,1002.9,1016.7
205,2020-09-21T03:24:00,0.4,北北西,1.2,北西,16.8,86.7,0,0,0,0,0,0,1002.9,1016.7
206,2020-09-21T03:25:00,0.5,北北西,1.2,北西,16.8,86.6,0,0,0,0,0,0,1002.9,1016.7
207,2020-09-21T03:26:00,0.5,北北西,1.2,北西,16.8,86.7,0,0,0,0,0,0,1002.9,1016.7
208,2020-09-21T03:27:00,0.6,北北西,1.5,北西,16.8,86.2,0,0,0,0,0,0,1002.9,1016.7
209,2020-09-21T03:28:00,0.7,北北西,1.5,北西,16.8,86.6,0,0,0,0,0,0,1002.9,1016.7
210,2020-09-21T03:29:00,0.8,北西,1.6,北西,16.8,86.5,0,0,0,0,0,0,1003,1016.8
211,2020-09-21T03:30:00,0.9,北西,1.6,北西,16.7,86.3,0,0,0,0,0,0,1003,1016.8
212,2020-09-21T03:31:00,0.9,北西,1.6,北西,16.7,86.5,0,0,0,0,0,0,1003,1016.8
213,2020-09-21T03:32:00,0.9,北西,1.7,北,16.6,86.6,0,0,0,0,0,0,1003,1016.8
214,2020-09-21T03:33:00,0.9,北北西,1.7,北,16.7,87.2,0,0,0,0,0,0,1002.9,1016.7
215,2020-09-21T03:34:00,0.9,北北西,1.7,北,16.8,87.4,0,0,0,0,0,0,1003,1016.8
216,2020-09-21T03:35:00,1,北西,1.7,北,16.6,86.7,0,0,0,0,0,0,1003,1016.8
217,2020-09-21T03:36:00,1.1,北西,2,西北西,16.6,86.6,0,0,0,0,0,0,1003,1016.8
218,2020-09-21T03:37:00,1.1,北西,2,西北西,16.8,87.2,0,0,0,0,0,0,1003,1016.8
219,2020-09-21T03:38:00,1.1,北西,2,西北西,16.8,87.1,0,0,0,0,0,0,1003,1016.8
220,2020-09-21T03:39:00,1.2,北西,2,西北西,16.9,87,0,0,0,0,0,0,1003,1016.8
221,2020-09-21T03:40:00,1.1,北西,2,西北西,16.8,86.5,0,0,0,0,0,0,1003,1016.8
222,2020-09-21T03:41:00,1.2,西北西,2,西北西,16.4,85.4,0,0,0,0,0,0,1003,1016.8
223,2020-09-21T03:42:00,1.1,西北西,2,西北西,16.2,85.7,0,0,0,0,0,0,1003,1016.8
224,2020-09-21T03:43:00,1.1,西,2,西北西,16.1,86.9,0,0,0,0,0,0,1003,1016.8
225,2020-09-21T03:44:00,1.1,西,2,西北西,16.2,88.2,0,0,0,0,0,0,1003,1016.8
226,2020-09-21T03:45:00,0.9,西,2,西北西,16.4,88.7,0,0,0,0,0,0,1003,1016.8
227,2020-09-21T03:46:00,0.8,西北西,1.9,西,16.5,88.8,0,0,0,0,0,0,1003,1016.8
228,2020-09-21T03:47:00,0.8,西北西,1.9,西,16.6,88.6,0,0,0,0,0,0,1003,1016.8
229,2020-09-21T03:48:00,0.7,北北西,1.8,北北東,16.7,87.9,0,0,0,0,0,0,1003,1016.8
230,2020-09-21T03:49:00,0.6,北,1.8,北北東,16.5,86.8,0,0,0,0,0,0,1003,1016.8
231,2020-09-21T03:50:00,0.5,北東,1.8,北北東,16.5,86.6,0,0,0,0,0,0,1003,1016.8
232,2020-09-21T03:51:00,0.5,北東,1.8,北北東,16.4,86.4,0,0,0,0,0,0,1002.9,1016.7
233,2020-09-21T03:52:00,0.5,北東,1.8,北北東,16.5,87,0,0,0,0,0,0,1002.9,1016.7
234,2020-09-21T03:53:00,0.4,北東,1.8,北北東,16.5,87.1,0,0,0,0,0,0,1002.9,1016.7
235,2020-09-21T03:54:00,0.4,北東,1.8,北北東,16.4,86.8,0,0,0,0,0,0,1002.9,1016.7
236,2020-09-21T03:55:00,0.4,東北東,1.8,北北東,16.4,87.1,0,0,0,0,0,0,1003,1016.8
237,2020-09-21T03:56:00,0.4,東北東,1.8,北北東,16.6,87,0,0,0,0,0,0,1003,1016.8
238,2020-09-21T03:57:00,0.4,東北東,1.4,東,16.5,86.9,0,0,0,0,0,0,1003,1016.8
239,2020-09-21T03:58:00,0.4,東北東,1.4,東,16.7,87.2,0,0,0,0,0,0,1003,1016.8
240,2020-09-21T03:59:00,0.5,東北東,1.6,東北東,16.5,86.8,0,0,0,0,0,0,1003,1016.8
241,2020-09-21T04:00:00,0.5,東北東,1.6,東北東,16.7,86.7,0,0,0,0,0,0,1003,1016.8
242,2020-09-21T04:01:00,0.6,東北東,2.3,北東,16.6,86.6,0,0,0,0,0,0,1003,1016.8
243,2020-09-21T04:02:00,0.7,北東,2.3,北東,16.6,86.5,0,0,0,0,0,0,1003,1016.8
244,2020-09-21T04:03:00,0.9,北東,2.3,北東,16.7,86.3,0,0,0,0,0,0,1002.9,1016.7
245,2020-09-21T04:04:00,1,北東,2.4,北東,16.8,86.3,0,0,0,0,0,0,1002.9,1016.7
246,2020-09-21T04:05:00,1.2,北東,2.4,北東,16.7,86.1,0,0,0,0,0,0,1002.9,1016.7
247,2020-09-21T04:06:00,1.3,北北東,2.6,北北東,16.6,85.4,0,0,0,0,0,0,1002.9,1016.7
248,2020-09-21T04:07:00,1.5,北北東,3,北北東,16.7,85.7,0,0,0,0,0,0,1002.9,1016.7
249,2020-09-21T04:08:00,1.6,北北東,3,北北東,16.8,86.1,0,0,0,0,0,0,1002.9,1016.7
250,2020-09-21T04:09:00,1.7,北北東,3,北北東,16.8,85.6,0,0,0,0,0,0,1002.9,1016.7
251,2020-09-21T04:10:00,1.9,北北東,3,北北東,16.6,85.1,0,0,0,0,0,0,1002.9,1016.7
252,2020-09-21T04:11:00,1.9,北北東,3,北北東,16.6,85.1,0,0,0,0,0,0,1002.9,1016.7
253,2020-09-21T04:12:00,1.9,北北東,3,北北東,16.6,85.6,0,0,0,0,0,0,1002.8,1016.6
254,2020-09-21T04:13:00,1.9,北北東,3,北北東,16.5,85.5,0,0,0,0,0,0,1002.8,1016.6
255,2020-09-21T04:14:00,1.8,北北東,3,北北東,16.5,85.7,0,0,0,0,0,0,1002.8,1016.6
256,2020-09-21T04:15:00,1.8,北北東,3,北北東,16.5,86,0,0,0,0,0,0,1002.9,1016.7
257,2020-09-21T04:16:00,1.7,北北東,3,北北東,16.4,86.2,0,0,0,0,0,0,1002.9,1016.7
258,2020-09-21T04:17:00,1.5,北北東,3,北北東,16.3,86.1,0,0,0,0,0,0,1003,1016.8
259,2020-09-21T04:18:00,1.4,北北東,3,北北東,16.3,86.5,0,0,0,0,0,0,1003,1016.8
260,2020-09-21T04:19:00,1.2,北北東,2.5,北東,16.3,86.8,0,0,0,0,0,0,1003,1016.8
261,2020-09-21T04:20:00,1.1,北北東,2.3,北北東,16.4,87.3,0,0,0,0,0,0,1003.1,1016.9
262,2020-09-21T04:21:00,1,北,2.3,北北東,16.5,87.5,0,0,0,0,0,0,1003.1,1016.9
263,2020-09-21T04:22:00,0.9,北,2.2,北北東,16.3,86.8,0,0,0,0,0,0,1003.1,1016.9
264,2020-09-21T04:23:00,0.7,北,2.2,北北東,16.2,86.8,0,0,0,0,0,0,1003.1,1016.9
265,2020-09-21T04:24:00,0.6,北,1.6,北北東,16.2,87.2,0,0,0,0,0,0,1003.1,1016.9
266,2020-09-21T04:25:00,0.6,北北西,1.4,北北東,16.3,87.4,0,0,0,0,0,0,1003.1,1016.9
267,2020-09-21T04:26:00,0.5,北北西,1.2,北北西,16.3,87.9,0,0,0,0,0,0,1003.1,1016.9
268,2020-09-21T04:27:00,0.5,北北西,1.5,北,16.3,87.8,0,0,0,0,0,0,1003.1,1016.9
269,2020-09-21T04:28:00,0.5,北北西,1.5,北,16.2,87.5,0,0,0,0,0,0,1003.1,1016.9
270,2020-09-21T04:29:00,0.6,北北西,1.6,北東,16.2,87.6,0,0,0,0,0,0,1003.1,1016.9
271,2020-09-21T04:30:00,0.7,北北西,1.6,北東,16.3,87.7,0,0,0,0,0,0,1003.1,1016.9
272,2020-09-21T04:31:00,0.7,北,1.6,北東,16.3,87.9,0,0,0,0,0,0,1003.1,1016.9
273,2020-09-21T04:32:00,0.8,北,1.9,北東,16.3,87.5,0,0,0,0,0,0,1003.1,1016.9
274,2020-09-21T04:33:00,0.8,北,1.9,北東,16.4,87.8,0,0,0,0,0,0,1003.1,1016.9
275,2020-09-21T04:34:00,0.8,北,1.9,北東,16.5,87.8,0,0,0,0,0,0,1003.1,1016.9
276,2020-09-21T04:35:00,0.8,北,1.9,北東,16.3,86.6,0,0,0,0,0,0,1003.2,1017
277,2020-09-21T04:36:00,0.9,北,1.9,北東,16.3,86.7,0,0,0,0,0,0,1003.2,1017
278,2020-09-21T04:37:00,0.8,北,1.9,北東,16.2,86.6,0,0,0,0,0,0,1003.1,1016.9
279,2020-09-21T04:38:00,0.8,北北西,1.9,北東,16.2,86.9,0,0,0,0,0,0,1003.2,1017
280,2020-09-21T04:39:00,0.8,北北西,1.9,北東,16.2,87.3,0,0,0,0,0,0,1003.2,1017
281,2020-09-21T04:40:00,0.8,北北西,1.9,北東,16.2,87.5,0,0,0,0,0,0,1003.2,1017
282,2020-09-21T04:41:00,0.7,北西,1.9,北東,16.2,87.8,0,0,0,0,0,0,1003.3,1017.1
283,2020-09-21T04:42:00,0.7,北西,1.4,西北西,16.1,87.8,0,0,0,0,0,0,1003.3,1017.1
284,2020-09-21T04:43:00,0.8,北西,1.4,西北西,16.1,88.1,0,0,0,0,0,0,1003.3,1017.1
285,2020-09-21T04:44:00,0.9,北西,1.4,西北西,16.1,87.8,0,0,0,0,0,0,1003.3,1017.1
286,2020-09-21T04:45:00,0.9,北西,1.4,西北西,16,87.8,0,0,0,0,0,0,1003.3,1017.1
287,2020-09-21T04:46:00,0.9,北西,1.4,西北西,16,88.1,0,0,0,0,0,0,1003.4,1017.2
288,2020-09-21T04:47:00,0.8,北西,1.4,西北西,16.1,88.4,0,0,0,0,0,0,1003.4,1017.2
289,2020-09-21T04:48:00,0.8,北西,1.4,西北西,16.1,88.5,0,0,0,0,0,0,1003.4,1017.2
290,2020-09-21T04:49:00,0.8,北西,1.4,西北西,16.1,88.7,0,0,0,0,0,0,1003.4,1017.2
291,2020-09-21T04:50:00,0.8,北西,1.4,西北西,16.1,88.4,0,0,0,0,0,0,1003.4,1017.2
292,2020-09-21T04:51:00,0.8,北西,1.4,西北西,16.2,88.7,0,0,0,0,0,0,1003.4,1017.2
293,2020-09-21T04:52:00,0.8,北西,1.4,北西,16.2,88.6,0,0,0,0,0,0,1003.4,1017.2
294,2020-09-21T04:53:00,0.8,北西,1.4,北西,16.2,88.2,0,0,0,0,0,0,1003.4,1017.2
295,2020-09-21T04:54:00,0.8,北西,1.4,北西,16.1,88.2,0,0,0,0,0,0,1003.4,1017.2
296,2020-09-21T04:55:00,0.7,北西,1.4,北西,16.1,88.2,0,0,0,0,0,0,1003.4,1017.2
297,2020-09-21T04:56:00,0.8,北西,1.4,北西,16.2,88.5,0,0,0,0,0,0,1003.4,1017.2
298,2020-09-21T04:57:00,0.8,北西,1.4,北西,16.1,88.4,0,0,0,0,0,0,1003.4,1017.2
299,2020-09-21T04:58:00,0.8,北西,1.4,北西,16.2,88.3,0,0,0,0,0,0,1003.4,1017.2
300,2020-09-21T04:59:00,0.7,北西,1.4,北西,16.1,88.2,0,0,0,0,0,0,1003.4,1017.2
301,2020-09-21T05:00:00,0.7,北西,1.4,北西,16,88.1,0,0,0,0,0,0,1003.4,1017.2
302,2020-09-21T05:01:00,0.7,北北西,1.4,北西,16,88.5,0,0,0,0,0,0,1003.4,1017.2
303,2020-09-21T05:02:00,0.6,北北西,1.2,北西,16,88.7,0,0,0,0,0,0,1003.4,1017.2
304,2020-09-21T05:03:00,0.6,北北西,1.2,北西,16,88.7,0,0,0,0,0,0,1003.4,1017.2
305,2020-09-21T05:04:00,0.6,北北西,1.1,北西,15.9,88.6,0,0,0,0,0,0,1003.5,1017.3
306,2020-09-21T05:05:00,0.6,北北西,1.8,北西,15.8,88.7,0,0,0,0,0,0,1003.5,1017.3
307,2020-09-21T05:06:00,0.6,北北西,1.8,北西,15.9,89,0,0,0,0,0,0,1003.5,1017.3
308,2020-09-21T05:07:00,0.6,北北西,1.8,北西,15.9,89.3,0,0,0,0,0,0,1003.5,1017.3
309,2020-09-21T05:08:00,0.7,北北西,2.2,北北東,15.9,89.1,0,0,0,0,0,0,1003.5,1017.3
310,2020-09-21T05:09:00,0.7,北北西,2.2,北北東,15.9,89.2,0,0,0,0,0,0,1003.5,1017.3
311,2020-09-21T05:10:00,0.8,北北西,2.2,北北東,16,89.3,0,0,0,0,0,0,1003.5,1017.3
312,2020-09-21T05:11:00,0.8,北,2.2,北北東,16,89.3,0,0,0,0,0,0,1003.6,1017.4
313,2020-09-21T05:12:00,0.8,北,2.2,北北東,16,88.9,0,0,0,0,0,0,1003.6,1017.4
314,2020-09-21T05:13:00,0.8,北北西,2.2,北北東,15.9,88.6,0,0,0,0,0,0,1003.6,1017.4
315,2020-09-21T05:14:00,0.9,北北西,2.2,北北東,16,89,0,0,0,0,0,0,1003.6,1017.4
316,2020-09-21T05:15:00,0.8,北北西,2.2,北北東,15.8,88.3,0,0,0,0,0,0,1003.6,1017.4
317,2020-09-21T05:16:00,0.8,北北西,2.2,北北東,15.6,88.4,0,0,0,0,0,0,1003.6,1017.4
318,2020-09-21T05:17:00,0.8,北北西,2.2,北北東,15.6,88.7,0,0,0,0,0,0,1003.6,1017.4
319,2020-09-21T05:18:00,0.8,北北西,2.1,北北東,15.6,89.3,0,0,0,0,0,0,1003.6,1017.4
320,2020-09-21T05:19:00,0.8,北北西,2.2,北西,15.6,89.5,0,0,0,0,0,0,1003.6,1017.4
321,2020-09-21T05:20:00,0.8,北北西,2.2,北西,15.7,90.4,0,0,0,0,0,0,1003.6,1017.4
322,2020-09-21T05:21:00,0.8,北北西,2.2,北西,15.7,90.6,0,0,0,0,0,0,1003.6,1017.4
323,2020-09-21T05:22:00,0.8,北西,2.2,北西,15.6,90.2,0,0,0,0,0,0,1003.6,1017.4
324,2020-09-21T05:23:00,0.9,北北西,2.2,北西,15.8,90.6,0,0,0,0,0,0,1003.6,1017.4
325,2020-09-21T05:24:00,0.9,北北西,2.2,北西,15.7,90.7,0,0,0,0,0,0,1003.6,1017.4